Location: Praha
(50.0830°N, 14.4670°E)
Time: 13:28:01
(UTC+02:00)

ISS - Pass Details

Date: 07 July 2019
Orbit: 409 x 418 km, 51.6° (Epoch: 21 July)

Event Time Altitude Azimuth Distance (km) Brightness Sun altitude
Exits shadow 04:04:45 - 251° (WSW) 1,714 -1.2 -7.3°
Reaches altitude 10° 04:05:19 10° 251° (WSW) 1,477 -1.5 -7.3°
Maximum altitude 04:08:38 86° 165° (SSE) 416 -3.8 -6.9°
Drops below altitude 10° 04:11:57 10° 75° (ENE) 1,478 0.0 -6.6°
Sets 04:14:03 0° 75° (ENE) 2,340 1.2 -6.4°
